CAPE
1 1 2 0 0 0 1 1 0 0 1 1 0 0 0 0 0 0 0 0 0 0 0 0 0 0 1 29 48 191 356 57 89 3 101 155 244 348 268 254 167 143 0 33 216
1 2 2 3 4 1 1 1 1 1 1 1 0 0 0 0 0 0 0 0 0 0 0 0 0 0 0 21 29 288 395 137 328 36 202 166 307 275 197 229 155 0 4 87 171
2 1 1 3 1 1 0 1 1 1 0 1 0 0 0 0 0 0 0 0 0 0 0 0 0 0 46 0 104 364 292 436 134 99 185 220 268 162 198 180 152 27 42 90 121
2 1 1 0 1 1 0 0 1 1 0 1 0 0 0 0 0 0 0 0 0 0 0 0 0 0 114 7 63 161 353 315 153 288 171 251 197 119 99 34 5 0 49 67 92
1 1 1 1 1 0 1 0 1 0 1 1 0 0 0 0 0 0 0 0 0 0 0 0 0 0 327 41 10 260 381 219 237 384 139 206 58 49 72 0 0 0 29 51 54
1 1 1 3 2 0 1 0 0 0 1 0 0 0 0 0 0 0 0 0 0 0 0 0 0 0 116 23 14 359 309 212 264 227 60 56 27 51 51 0 0 0 24 34 27
1 1 1 0 0 0 0 1 0 0 1 1 0 0 0 0 0 0 0 0 0 0 0 0 0 0 0 0 0 294 308 260 393 179 89 68 48 99 22 0 2 5 0 16 0
0 0 0 0 0 0 0 0 0 1 0 0 0 0 0 0 0 0 0 0 0 0 0 0 0 0 0 0 209 516 456 306 315 332 173 14 73 58 34 0 0 4 41 42 49
0 0 0 0 0 0 0 0 0 0 0 0 0 0 0 0 0 0 0 0 0 0 0 0 0 0 0 0 409 206 288 333 353 215 135 39 62 227 12 9 8 14 33 59 41
0 0 0 0 0 0 0 0 0 0 0 0 0 0 0 0 0 0 0 0 0 0 0 0 0 0 0 0 183 33 302 536 456 262 15 16 0 261 49 19 63 37 42 73 61
0 0 0 0 0 0 0 0 0 0 0 0 0 0 0 0 0 0 0 0 0 0 0 0 0 4 0 0 0 39 15 339 438 294 32 44 32 47 59 75 59 69 56 80 90
0 0 0 0 0 0 0 0 0 0 0 0 0 0 0 0 0 0 0 0 0 0 0 0 0 0 13 0 0 32 185 234 379 480 200 20 73 141 149 94 152 59 51 83 93
0 0 0 0 0 0 0 0 0 0 0 0 0 0 0 0 0 0 0 0 0 0 0 0 0 5 0 0 0 0 145 72 298 208 147 98 33 44 25 88 144 100 98 125 164
0 0 0 0 0 0 0 0 0 0 0 0 0 0 0 0 0 0 0 0 0 0 0 0 0 0 0 0 0 0 0 195 476 184 14 26 0 1 0 30 99 145 173 138 227
0 0 0 0 0 0 0 0 0 0 0 0 0 0 0 0 0 0 0 0 0 0 0 0 0 0 0 0 0 0 0 10 136 202 71 69 25 0 3 6 241 348 153 113 125
0 0 0 0 0 0 0 0 0 0 0 0 0 0 0 0 0 0 0 0 0 0 0 0 0 0 0 0 0 0 0 0 101 187 150 69 18 0 10 0 63 389 448 238 162
0 0 0 0 0 0 0 0 0 0 0 0 0 0 1 1 0 0 0 0 0 0 0 0 0 0 0 0 0 0 0 0 8 51 50 157 33 5 0 31 94 430 512 459 223
0 0 0 0 0 0 0 0 0 0 0 0 0 0 0 0 10 1 0 0 0 0 0 0 0 0 0 0 0 0 0 16 12 46 32 2 84 68 248 263 296 572 479 600 532
0 0 0 0 0 0 0 0 0 0 0 0 2 4 0 0 2 3 2 3 0 0 0 0 0 0 0 0 0 0 0 0 7 14 44 30 12 158 171 282 514 604 442 513 705
0 0 0 0 0 0 0 0 0 0 0 0 7 7 19 1 0 20 10 29 36 0 0 1 0 0 0 0 0 0 0 4 0 35 26 55 50 7 158 241 362 734 636 558 736
0 0 0 0 0 0 1 0 0 0 0 0 0 53 45 27 9 36 35 6 3 2 0 2 0 0 0 0 0 0 0 0 8 10 29 33 54 444 533 605 373 521 480 676 858
0 0 0 0 0 0 0 0 0 0 0 0 0 39 129 115 18 61 58 45 0 0 0 0 2 11 0 0 0 0 0 0 0 0 7 26 169 341 624 717 569 334 283 226 294
0 0 0 0 0 0 0 0 0 0 0 0 4 35 134 185 200 32 34 0 0 0 3 3 0 31 1 0 0 0 0 0 0 0 15 23 68 423 551 660 562 560 406 189 100
0 0 0 0 0 0 0 0 0 0 0 0 41 35 118 201 197 93 13 0 0 1 0 0 27 49 22 0 1 0 0 0 0 0 3 30 146 305 499 471 310 299 124 45 46
0 0 0 0 0 0 0 0 0 0 0 0 69 29 71 200 110 72 21 0 0 0 1 13 66 74 25 1 0 1 0 0 0 0 11 33 43 328 614 642 434 135 95 50 92
0 0 0 0 0 0 0 0 0 0 0 0 0 0 12 179 166 0 0 0 3 0 4 36 18 47 28 17 0 47 71 8 0 0 2 11 36 72 592 640 491 249 34 108 108
0 0 0 0 0 0 0 0 0 0 0 0 0 0 0 0 0 0 0 0 0 5 5 0 32 8 32 19 62 28 19 28 41 53 79 9 213 218 334 325 343 310 84 108 113
CIN
0 0 0 0 0 0 0 0 0 0 0 0 0 0 0 0 0 0 0 0 0 0 0 0 0 0 -5 -85 -50 -37 -1 -18 -32 -96 -45 -43 -5 -1 -4 -8 -10 -24 0 -90 -22
0 0 0 0 0 0 0 0 0 0 0 0 0 0 0 0 0 0 0 0 0 0 0 0 0 0 0 -16 -18 0 0 -15 -1 -55 -31 -42 -2 -12 -8 -1 -9 0 -15 -73 -29
0 -1 0 0 0 0 0 0 0 0 0 0 0 0 0 0 0 0 0 0 0 0 0 0 0 0 -64 0 -17 -1 -2 -1 -9 -28 -24 -27 -1 -16 -10 -3 -6 -69 -87 -56 -25
0 0 0 0 0 0 0 0 0 0 0 0 0 0 0 0 0 0 0 0 0 0 0 0 0 0 -58 -12 -33 -11 0 -2 -3 -7 -13 -10 -6 -5 -1 -2 -1 0 -69 -54 -24
0 0 0 0 0 0 0 0 0 0 0 0 0 0 0 0 0 0 0 0 0 0 0 0 0 0 -2 -79 -52 -12 -2 -11 -4 -2 -36 -8 -8 -30 -4 0 0 0 -34 -29 -11
0 0 0 0 0 0 0 0 0 0 0 0 0 0 0 0 0 0 0 0 0 0 0 0 0 0 -45 -77 -69 -11 -14 -11 -3 -10 -43 -4 -17 -15 -23 0 0 0 -14 -18 -21
0 0 0 0 0 0 0 0 0 0 0 0 0 0 0 0 0 0 0 0 0 0 0 0 0 0 0 0 0 -46 -12 -2 -3 -2 -2 -8 -1 -1 -29 0 -6 -8 -1 -16 0
0 0 0 0 0 0 0 0 0 0 0 0 0 0 0 0 0 0 0 0 0 0 0 0 0 0 0 0 -62 -5 -2 -1 -1 -1 -2 -31 -2 -14 -33 -3 0 -3 -1 -4 -5
0 0 0 0 0 0 0 0 0 0 0 0 0 0 0 0 0 0 0 0 0 0 0 0 0 0 0 -13 -2 -35 -1 -1 0 -1 -16 -26 -15 -1 -46 -35 -4 -2 -2 -2 -3
0 0 0 0 0 0 0 0 0 0 0 0 0 0 0 0 0 0 0 0 0 0 0 0 0 0 0 0 -4 -31 -2 -2 -1 0 -73 -21 -10 0 -20 -40 -1 -3 -2 -3 -4
0 0 0 0 0 0 0 0 0 0 0 0 0 0 0 0 0 0 0 0 0 0 0 0 0 -82 0 0 0 -21 -46 -3 -2 -11 -4 -6 -6 -2 0 -5 -1 -1 -1 -2 -2
0 0 0 0 0 0 0 0 0 0 0 0 0 0 0 0 0 0 0 0 0 0 0 0 0 0 -9 0 0 -3 -11 -2 -2 -2 -3 -15 -1 -1 -1 -11 -1 -1 -1 -2 -2
0 0 0 0 0 0 0 0 0 0 0 0 0 0 0 0 0 0 0 0 0 0 0 0 0 -1 0 0 0 -14 -2 -5 -3 -54 -22 -6 -21 -25 -21 -15 -3 -2 -5 -3 -1
0 0 0 0 0 0 0 0 0 0 0 0 0 0 0 0 0 0 0 0 0 0 0 0 0 0 0 0 0 0 0 -3 -6 -14 -11 -42 -1 -47 0 -5 -9 -2 -2 -2 -7
0 0 0 0 0 0 0 0 0 0 -2 0 0 0 0 0 0 0 0 0 0 0 0 0 0 0 0 0 0 -1 0 -6 -2 -1 -33 -28 -3 0 -72 -56 -14 -2 -8 -4 -3
0 0 0 0 0 0 0 0 0 0 0 0 0 0 0 0 0 0 0 0 0 0 0 0 0 0 0 0 0 0 0 0 -2 -3 -2 -28 -19 0 -22 0 -38 -9 -2 -18 -4
0 0 0 0 0 0 0 0 0 -1 0 0 0 0 -2 -3 0 0 0 0 0 0 0 0 0 0 0 0 0 0 0 0 -3 -1 -4 -4 -28 -6 0 -55 -45 -69 -37 -3 -4
0 0 0 0 0 0 0 0 0 0 0 0 0 0 0 0 -4 -3 0 0 0 0 0 0 0 0 0 0 0 0 0 -5 -7 -2 -8 -13 -4 -16 -34 -107 -127 -44 -67 -19 -11
0 0 0 0 0 0 0 0 0 0 0 0 -2 -3 -2 0 -1 -2 0 -1 -1 0 0 0 0 0 0 0 0 0 0 0 -7 -12 -4 -12 -22 -144 -172 -176 -128 -95 -106 -61 -36
0 0 0 0 0 0 0 0 0 0 0 0 -3 -11 -4 -1 0 -3 -4 -4 -6 0 0 -2 0 0 0 0 0 0 0 -8 0 -5 -4 -7 -3 -13 -93 -120 -252 -118 -112 -73 -45
0 0 0 0 0 0 -2 0 0 0 0 0 0 -2 -10 -3 -7 -4 -9 -10 -2 -2 0 -4 0 0 0 0 0 0 0 0 -4 -6 -6 -5 -5 -26 -46 -137 -234 -231 -235 -148 -57
0 0 0 0 0 0 0 0 0 0 0 0 0 -15 -3 -17 -3 -8 -2 -7 0 0 0 0 -4 -6 0 0 0 0 0 0 0 -1 -5 -13 -12 -201 -119 -152 -193 -286 -283 -299 -235
0 0 0 0 0 0 0 0 0 0 0 0 -41 -23 -29 -16 -5 -12 -7 0 0 0 -5 -12 0 -3 -1 0 0 0 0 0 0 0 -4 -6 -7 -222 -210 -171 -195 -196 -216 -299 -357
0 0 0 0 0 0 0 0 0 0 0 0 -42 -47 -16 -12 -11 -10 -20 0 0 -26 0 0 -4 -9 -9 0 -1 0 0 0 0 0 -3 -7 -17 -109 -186 -223 -272 -266 -350 -413 -397
0 0 0 0 0 0 0 0 0 0 0 0 -26 -53 -5 -1 -9 -22 -15 -7 0 0 -52 -60 -4 -2 -21 -3 0 -1 0 0 0 0 -5 -8 -6 -23 -135 -171 -244 -353 -365 -407 -341
0 0 0 0 0 0 0 0 0 0 0 0 -37 -75 -29 -1 -8 -10 0 -1 -61 0 -72 -16 -42 -32 -36 -20 0 -2 -9 -5 0 0 -1 -20 -4 -151 -136 -169 -214 -297 -442 -343 -332
0 0 0 0 0 0 0 0 0 0 0 -10 0 0 0 0 0 0 0 0 0 -31 -62 0 -16 -24 -8 -41 -13 -4 -13 -10 -25 -37 -11 -1 -43 -128 -185 -238 -233 -239 -339 -310 -303
Wind_Speed
10 16 21 22 22 21 21 22 23 23 23 23 23 23 24 23 24 17 19 15 6 3 17 9 15 10 7 16 15 17 15 13 23 30 29 15 22 29 14 15 21 20 25 28 32
19 25 25 24 23 22 22 22 22 23 23 23 23 23 24 23 22 21 15 13 6 8 4 1 6 13 16 16 16 17 15 16 20 28 27 27 22 17 25 14 2 5 19 27 31
20 22 23 24 24 23 22 22 22 22 23 23 23 24 23 23 19 12 11 4 1 9 3 20 16 17 19 19 17 15 15 13 9 13 26 25 19 10 23 26 21 20 27 26 28
15 19 21 22 23 22 22 21 21 22 22 23 23 23 23 18 16 13 20 1 3 9 10 23 21 22 20 20 17 17 15 16 11 14 20 18 12 19 17 10 15 23 28 28 27
15 18 21 22 23 23 23 22 21 21 21 22 23 22 19 16 18 18 12 2 3 3 8 12 23 24 25 19 19 18 14 9 16 12 7 8 6 9 9 5 14 27 26 23 24
18 19 20 21 23 23 23 22 22 22 21 22 21 20 17 19 16 17 9 2 4 5 11 24 25 25 20 20 20 16 13 3 14 11 10 4 9 5 3 11 19 24 25 23 23
19 20 21 22 23 23 23 21 20 20 22 21 20 18 18 18 17 12 8 10 6 10 10 22 24 24 16 17 18 18 4 3 5 6 5 6 5 3 4 17 20 21 21 20 23
21 20 20 21 22 23 22 20 20 20 19 18 17 17 18 14 14 11 10 11 13 16 21 19 19 23 20 14 13 14 6 7 5 4 5 14 7 9 7 16 19 19 14 15 22
21 20 19 20 22 22 22 21 18 17 16 14 16 17 14 13 14 9 9 12 14 16 19 19 22 23 19 19 18 17 18 14 10 8 4 11 11 9 11 7 18 19 19 14 17
22 21 19 20 21 22 22 18 16 14 14 16 17 16 15 12 10 10 11 10 16 14 14 20 25 27 26 24 26 19 16 10 11 9 6 14 20 16 6 24 18 18 21 21 19
21 21 19 20 20 19 18 17 19 17 16 19 19 20 15 11 8 11 10 12 18 20 19 22 27 32 27 25 22 15 23 16 13 8 4 7 10 14 11 8 38 17 20 23 23
21 21 19 18 17 16 16 19 22 21 19 16 18 20 18 15 12 13 13 16 18 24 20 21 35 28 23 23 24 24 27 14 10 9 12 5 4 16 23 31 37 25 20 25 22
21 21 18 15 15 14 14 15 19 20 17 16 14 14 13 15 17 15 17 17 21 26 28 26 27 22 26 25 23 23 25 18 17 12 11 6 16 19 13 27 26 21 26 32 24
20 21 17 15 15 15 15 16 16 16 15 15 12 11 11 16 16 12 17 17 21 27 29 32 23 25 29 29 25 22 19 19 15 17 21 17 24 28 17 23 32 20 39 37 37
19 18 14 12 15 15 16 15 16 14 16 16 14 12 12 16 8 16 17 19 23 24 26 27 26 28 31 30 25 18 18 18 19 17 13 18 22 16 22 25 26 25 38 37 36
17 15 13 14 13 13 14 14 15 15 17 15 14 14 14 16 13 9 17 22 18 22 27 25 26 26 26 22 26 21 19 17 19 18 27 18 19 17 18 28 22 32 39 36 32
13 7 13 14 16 15 12 14 14 19 15 15 15 16 16 13 13 12 18 20 19 22 27 25 25 23 23 25 24 27 24 26 30 30 27 15 24 16 33 29 32 29 35 35 32
17 13 13 13 13 13 13 14 18 17 17 16 17 16 18 16 15 17 18 23 23 26 24 29 29 26 26 28 26 33 30 30 32 35 26 17 28 19 9 6 7 6 22 25 30
9 13 13 14 13 14 13 17 18 16 17 18 12 18 14 15 18 17 19 23 22 24 25 30 30 22 23 28 25 27 40 31 31 24 32 22 20 16 13 11 11 5 10 22 23
13 12 13 15 15 13 13 17 16 17 19 16 16 15 16 14 17 19 18 23 23 23 24 22 31 24 28 26 30 29 31 35 33 36 36 25 23 21 16 13 14 13 4 8 10
12 12 14 14 14 12 15 17 17 16 18 16 18 16 15 15 22 21 17 17 23 23 25 22 27 23 20 31 27 30 30 34 36 37 33 35 26 17 14 14 14 13 10 10 9
12 11 11 14 12 14 15 16 16 17 16 15 15 17 17 17 17 20 21 18 20 22 27 26 24 25 29 22 29 31 30 29 36 34 34 31 21 16 15 13 12 13 11 12 12
12 13 10 17 12 12 14 14 15 17 19 16 15 17 17 17 16 15 16 17 17 20 22 22 27 26 25 24 26 29 29 30 29 34 32 35 26 16 14 13 13 13 13 13 13
11 12 11 11 13 12 13 13 13 17 17 17 18 18 18 16 16 12 13 17 16 15 17 19 24 30 31 30 23 28 28 29 29 31 30 28 22 18 13 13 13 13 15 15 15
10 11 11 11 12 13 13 13 13 14 15 15 12 18 19 14 16 18 18 16 18 17 16 17 21 22 15 14 20 24 25 27 30 32 28 21 23 17 16 14 13 13 13 13 14
11 11 9 11 12 13 13 14 13 14 13 15 15 15 16 14 18 17 20 19 19 21 23 19 18 17 16 16 16 19 19 22 24 25 25 24 20 19 14 13 12 13 14 14 15
10 14 5 9 12 12 14 13 14 14 16 15 13 11 13 14 15 12 13 13 21 18 17 20 15 20 19 17 19 20 17 18 19 21 23 26 21 19 19 19 18 16 15 14 13
Wind_Direction
92 43 5 351 344 347 332 317 309 303 299 297 296 292 290 292 284 304 289 295 334 88 243 260 245 263 290 253 279 226 265 254 189 148 149 117 120 174 225 205 197 199 127 118 122
29 346 334 338 343 340 332 325 315 306 301 294 293 291 290 289 291 287 297 297 318 123 132 212 264 245 251 259 264 255 268 239 210 148 126 126 119 103 129 116 215 71 94 115 123
25 13 3 349 337 334 335 329 322 309 301 297 292 289 287 286 297 311 309 321 351 134 224 236 242 242 247 254 263 272 265 265 266 102 125 118 106 87 120 140 118 112 119 119 121
42 27 12 0 349 340 337 334 325 311 305 298 292 288 285 288 288 300 282 19 139 137 247 231 233 236 247 250 264 260 269 241 101 104 120 109 86 110 121 250 106 119 124 123 124
42 29 15 6 352 339 330 324 322 317 309 302 295 288 287 286 281 289 297 271 154 188 231 243 236 233 235 252 257 254 273 266 101 99 105 93 77 80 255 279 103 122 124 121 122
32 27 21 11 357 344 337 327 317 311 308 300 296 290 289 275 290 288 280 221 229 218 241 234 234 235 246 251 251 265 266 93 109 100 89 195 94 256 321 88 107 120 123 122 123
30 27 22 11 2 348 336 331 325 315 305 301 296 295 284 277 284 289 269 252 233 246 243 233 238 233 248 253 257 247 245 163 125 101 95 97 247 276 95 106 113 120 120 118 123
27 26 23 17 10 356 346 336 328 317 311 303 298 292 283 283 283 275 265 249 244 244 241 245 238 241 243 255 254 247 228 207 175 139 273 252 223 232 224 116 119 120 116 114 121
27 25 25 20 9 357 348 338 338 335 327 323 303 287 286 287 268 261 258 246 241 243 244 243 237 239 242 240 241 244 237 238 225 250 254 262 244 236 230 209 126 124 123 116 118
28 25 26 17 7 358 349 3 12 9 343 321 299 286 283 278 266 250 260 248 243 241 243 241 237 234 235 235 233 245 242 232 237 249 255 255 242 239 184 223 138 130 131 129 128
27 25 24 17 13 14 20 26 7 357 337 301 295 282 286 285 260 250 252 251 248 238 240 237 236 230 235 240 254 249 241 250 257 253 62 262 271 251 240 193 200 140 136 138 136
27 23 24 24 26 37 43 22 5 349 328 321 293 275 272 271 255 242 247 249 241 235 238 238 233 236 243 245 246 242 236 253 270 255 271 276 307 250 233 219 209 152 143 143 137
25 22 28 35 41 53 49 43 27 17 342 335 307 284 277 261 255 241 239 251 242 237 236 240 241 244 240 242 245 245 244 249 248 259 292 275 269 261 280 225 228 158 157 165 151
25 22 34 48 52 47 51 47 42 44 27 339 323 302 285 267 262 243 237 248 247 239 238 240 247 242 238 239 244 248 258 254 249 252 260 273 254 251 270 243 222 230 195 181 191
24 27 49 85 45 53 51 65 52 63 360 324 324 297 279 266 270 248 239 252 248 241 237 243 239 238 238 239 242 260 255 258 252 259 264 267 255 267 245 243 232 230 182 182 180
26 39 66 70 82 85 82 83 85 47 4 345 319 292 276 265 266 242 241 250 259 247 241 254 245 243 240 243 240 259 252 258 257 260 250 261 266 258 255 228 244 227 196 184 173
37 93 93 75 41 71 107 83 50 12 46 351 316 292 276 272 266 248 241 243 248 242 238 244 241 243 242 239 241 242 239 242 242 245 256 258 254 271 192 213 227 216 182 183 178
269 65 99 101 93 102 92 65 28 29 25 357 314 302 272 272 269 256 245 242 250 247 244 238 236 236 240 240 243 236 239 242 242 245 252 266 251 264 295 323 85 146 167 171 175
254 68 69 49 108 113 80 35 23 34 29 5 25 295 295 275 271 260 250 246 248 247 249 241 242 241 245 242 246 240 237 246 257 265 250 259 269 288 291 294 296 304 168 170 171
56 75 52 7 87 96 53 30 35 19 357 9 0 339 302 277 270 260 256 254 249 250 256 255 241 249 244 247 244 251 244 239 246 245 247 259 264 269 269 277 282 279 252 177 182
81 78 1 68 114 81 34 29 35 39 19 6 343 333 311 292 266 263 265 270 256 250 251 257 249 246 240 238 240 240 247 242 249 249 253 253 264 277 278 271 272 278 276 269 251
73 74 18 107 67 42 41 36 46 35 29 16 349 321 294 287 284 269 263 273 269 257 245 247 253 248 241 252 249 243 243 245 244 246 253 265 273 279 278 275 275 276 271 267 262
73 54 359 154 60 58 45 54 49 33 15 2 341 304 290 282 286 290 279 275 279 260 252 245 246 242 244 248 248 244 244 247 251 253 251 252 265 287 283 275 276 271 265 262 262
82 80 56 67 19 52 57 55 46 30 26 345 299 275 271 292 289 297 288 272 271 279 265 253 251 245 248 244 242 242 246 245 249 252 254 254 262 272 276 273 271 271 266 264 266
83 77 44 79 63 72 74 53 47 39 45 354 340 277 264 311 286 272 266 275 259 270 265 256 249 246 258 249 247 249 246 246 247 252 256 264 255 277 267 274 274 269 266 269 270
84 90 55 36 55 89 67 58 59 61 72 335 302 312 296 311 263 260 245 254 246 241 252 259 250 252 252 256 255 251 255 253 253 255 260 264 270 279 277 275 273 270 268 269 271
338 285 327 61 104 107 59 71 70 90 56 342 336 355 16 320 289 313 275 263 254 271 255 259 249 248 243 257 254 251 259 260 261 263 264 262 273 275 270 269 267 268 269 270 274